OPS 4682 DEB, 20048

Orbit data source: Space-Track

OPS 4682 DEB, 20048 is space debris in LEO originally from a launch on Sat, 03 Apr 1965 UTC launched from the Air Force Western Test Range (AFWTR). Debris objects in space refer to the collection of defunct objects orbiting the Earth. Examples of debris include non-operational satellites, rocket bodies, and fragments generated from explosions, collisions, or faulty payload assembly.

Loading next visibility...
Identifier
20048, 1965-027BC
Orbit
LEO
Country
Flag of USUS
Related business
Manufacturer
Unknown
Mission
Spacecraft
Bus & Motor
Unknown
Mass
Unknown
Launch date (UTC)
1965-04-03 (61 years ago)
Launch vehicle
Unknown
Launch site
Air Force Western Test Range (AFWTR)
Object type
Payload
Rocket body
Debris
Shape & HBR
Unknown shape, 0.1 m
Radar Cross Section
Medium (>0.1 m² and <1 m²)

Expand to show TLE details & history
Last TLE update: 1 week ago

TLE from 1 week ago
0 OPS 4682 DEB
1 20048U 65027BC  26169.79958236  .00000850  00000-0  27280-2 0  9991
2 20048  90.2472 354.4390 0027364 228.9329 148.1098 13.01713220616571
Epoch: 2026-06-18T19:11Z
TLE epoch observation values (Epoch: 2026-06-18T19:11:23.915Z)
Latitude
17.19383°
Longitude
159.47552°
Altitude
1,275.429 km
Speed
7.211 km/s
True Right ascension
23h 37m 27s
True Declination
17° 06' 13"
Sunlit
Object was in daylight at epoch
Visualization orbit readout
Latitude
Unknown
Longitude
Unknown
Altitude
Unknown
Speed
Unknown
Apparent Right ascension
Unknown
Apparent Declination
Unknown
Sunlit
N/A
Visualization observer readout
Local Sidereal Time
01:59:16
Azimuth
Unknown
Elevation
Unknown
Doppler factor
Unknown
Orbital elements
Apogee altitude
1,273.386 km
Perigee altitude
1,231.625 km
Semi-major axis
7,630.643 km
Eccentricity
0.00274
Inclination
90.2472°
RAAN
354.439°
Arg. of periapsis
228.9329°
True anomaly
148.27498°
Mean anomaly
148.1098°
Eccentric anomaly
148.19244°
Mean motion
3.25613 °/min
Orbital period
110.56 mins
BSTAR
0.002728
Loading maneuver chart data...
Computing Atmospheric mass density...
Loading historical data...
Loading historical data...
Loading historical data...
Loading historical data...
Loading historical data...
Loading historical data...
Loading historical data...

Documentation

Showing up to 5 results
|